This is the latest recevied weather packets stored in our database for station/object KD6VEX-1. If no packets are shown the sender has not sent any weather packets the latest 10 day(s).
| Time | Temp. | Humidity | Pressure | Rain* | Wind** | Luminosity | Snow |
|---|---|---|---|---|---|---|---|
| 1777423721 | 21.11° C | 48% | 1016.2 hPa | 0 mm | - | - | - |
| 1777423121 | 20.56° C | 48% | 1016.1 hPa | 0 mm | - | - | - |
| 1777422821 | 21.11° C | 48% | 1016.2 hPa | 0 mm | - | - | - |
| 1777422221 | 20.56° C | 52% | 1016 hPa | 0 mm | - | - | - |
| 1777421921 | 21.11° C | 51% | 1015.9 hPa | 0 mm | - | - | - |
| 1777421621 | 21.11° C | 51% | 1016 hPa | 0 mm | - | - | - |
| 1777421321 | 21.11° C | 50% | 1016 hPa | 0 mm | - | - | - |
| 1777421021 | 21.11° C | 51% | 1016 hPa | 0 mm | - | - | - |
| 1777420721 | 21.11° C | 51% | 1016.1 hPa | 0 mm | - | - | - |
| 1777420421 | 21.67° C | 50% | 1016.1 hPa | 0 mm | - | - | - |
| 1777420121 | 21.67° C | 49% | 1016 hPa | 0 mm | - | - | - |
| 1777419821 | 21.67° C | 49% | 1015.9 hPa | 0 mm | - | - | - |
| 1777419220 | 22.22° C | 49% | 1015.9 hPa | 0 mm | - | - | - |
| 1777418920 | 22.22° C | 47% | 1015.8 hPa | 0 mm | - | - | - |
| 1777418620 | 22.22° C | 47% | 1015.8 hPa | 0 mm | - | - | - |
| 1777418320 | 22.22° C | 47% | 1015.7 hPa | 0 mm | - | - | - |
| 1777418020 | 22.78° C | 48% | 1015.7 hPa | 0 mm | - | - | - |
| 1777417720 | 22.78° C | 48% | 1015.8 hPa | 0 mm | - | - | - |
| 1777417120 | 22.22° C | 47% | 1015.9 hPa | 0 mm | - | - | - |
| 1777416821 | 22.78° C | 47% | 1016 hPa | 0 mm | - | - | - |
| 1777416520 | 22.78° C | 46% | 1016 hPa | 0 mm | - | - | - |
| 1777416220 | 22.78° C | 46% | 1016 hPa | 0 mm | - | - | - |
| 1777415920 | 22.78° C | 47% | 1015.9 hPa | 0 mm | - | - | - |
| 1777415620 | 22.78° C | 46% | 1015.9 hPa | 0 mm | - | - | - |
| 1777415320 | 22.78° C | 46% | 1016 hPa | 0 mm | - | - | - |
* Rain latest hour (hover to see other rain measurements)
** Current wind speed in m/s (hover to see current wind gust speed)